Location: Le Quartier
(44.0833°N, 6.9333°E)
Time: 00:07:38
(UTC+00:00)

Daily predictions for brighter satellites

Satellite Brightness Start Highest point End
(mag) Time Altitude Azimuth Time Altitude Azimuth Time Altitude Azimuth
CENTAUR R/B 3.4 03:44:23 41° NNE 03:44:23 41° NNE 03:49:09 10° NNE
Cosmos 1486 Rocket 4.2 04:03:40 67° ESE 04:03:40 67° ESE 04:08:51 10° NNE
Cosmos 1151 Rocket 4.1 04:05:31 44° E 04:05:31 44° E 04:09:30 10° SSE
SL-8 R/B 4.4 04:07:03 52° ENE 04:07:03 52° ENE 04:10:48 10° ESE
NOSS 3-2 (C) 3.9 04:12:49 46° N 04:12:49 46° N 04:17:57 10° NNE
DNEPR-1 R/B 4.2 04:11:35 61° NE 04:11:52 62° NE 04:17:31 10° SE
Cosmos 1766 Rocket 4.1 04:15:36 10° S 04:19:49 55° E 04:24:04 10° NNE
BREEZE-M DEB (TANK) 3.2 04:21:03 67° SW 04:21:20 69° SSW 04:33:48 10° SE
Envisat 3.5 04:19:50 10° NNE 04:24:52 59° E 04:29:52 10° S
Cosmos 1328 Rocket 4.2 04:25:33 31° NNE 04:27:22 54° ENE 04:31:36 10° SSE
Cosmos 2263 4.1 04:24:34 30° SSW 04:27:30 89° ESE 04:33:17 10° NNE
Cosmos 2098 Rocket 3.0 04:32:19 67° SSW 04:32:54 88° W 04:38:05 10° N
Cosmos 2369 Rocket 2.1 04:34:16 60° WNW 04:34:24 60° WNW 04:39:58 10° NNE
Cosmos 2344 4.1 04:34:44 35° NW 04:35:26 36° NNW 04:42:46 10° NNE
SL-19 R/B 4.1 04:32:47 10° SSE 04:38:22 78° WSW 04:41:27 28° NNW
Cosmos 2142 Rocket 4.5 04:32:13 10° N 04:38:37 88° E 04:45:01 10° S
USA 238 DEB 4.1 04:39:33 38° NW 04:39:51 38° NW 04:46:14 10° NNE
USA 238 4.1 04:39:38 38° NW 04:39:57 38° NW 04:46:21 10° NNE
Cosmos 1656 Rocket 3.4 04:37:56 36° SW 04:40:08 73° WNW 04:45:36 10° NNE
COSMO-SKYMED 1 2.6 04:36:37 10° SSE 04:40:56 77° ENE 04:42:52 33° N
Cosmos 2279 Rocket 3.9 04:36:46 10° N 04:42:59 90° WNW 04:49:12 10° S
USA 215 3.6 04:36:54 10° ESE 04:43:17 59° NNE 04:46:50 27° NW
H-2A R/B 4.1 04:41:12 10° N 04:46:53 27° SSW 04:48:43 10° SSW
BREEZE-M DEB (TANK) 4.4 04:28:15 10° SW 04:45:03 60° SSE 04:49:17 10° ENE
Meteor 1-31 Rocket 3.0 04:41:38 10° NNE 04:45:31 68° ESE 04:49:24 10° S
Helios 1B 4.4 04:44:20 10° SSE 04:48:40 84° W 04:50:21 37° NNW
DELTA 2 R/B (1) 4.1 04:46:42 33° SW 04:48:50 52° S 04:54:12 10° E
Cosmos 1408 Rocket 4.1 04:48:05 10° S 04:52:17 57° E 04:56:32 10° NNE
CZ-2C R/B 2.5 04:47:00 10° SSE 04:52:29 81° WSW 04:57:37 11° NNW
Cosmos 1943 Rocket 3.7 04:54:24 19° NNW 04:54:24 19° NNW 04:56:57 10° N
CBERS 1 LM4 rocket 4.4 04:48:50 10° NNE 04:53:45 86° ESE 04:58:50 10° SSW
CZ-4B R/B 4.0 04:50:05 10° NNE 04:54:36 89° SE 04:59:03 10° SSW
Cosmos 1354 Rocket 3.9 04:53:15 10° SSW 04:58:31 84° WNW 05:03:53 10° NNE
Cosmos 1634 Rocket 4.3 04:58:14 21° NNW 05:01:58 41° W 05:07:43 10° SSW
Meteor 2-15 4.4 04:58:11 10° N 05:04:17 88° E 05:10:20 10° S
Landsat 5 3.5 05:04:19 10° S 05:08:49 72° WSW 05:12:32 15° NNW
Cosmos 1515 Rocket 3.5 05:06:59 10° N 05:11:22 87° E 05:15:41 10° S
SJ 16-02 1.8 05:07:16 10° S 05:11:35 62° ESE 05:15:56 10° NNE
ADEOS 3.6 05:08:39 10° NNE 05:13:54 82° ESE 05:19:07 10° SSW
Meteor 2-19 Rocket 4.4 05:12:11 10° S 05:18:14 88° W 05:24:20 10° N
BREEZE-M DEB (TANK) 3.7 05:16:52 29° NW 05:18:15 43° N 05:25:52 10° E
CZ-4C R/B 2.7 05:21:52 10° S 05:24:56 54° W 05:26:28 26° NNW
NOAA 11 4.2 05:19:58 10° NNE 05:25:29 88° WNW 05:30:59 10° SSW
COSMOS 2487 3.5 05:23:51 10° N 05:27:04 41° ENE 05:30:14 10° SE
SKYMED 2 4.3 05:25:13 10° SSW 05:29:06 32° W 05:31:28 19° NW
Cosmos 1500 Rocket 3.6 05:25:20 10° S 05:29:47 84° E 05:34:17 10° N
CZ-2C R/B 3.0 05:28:07 10° NNE 05:33:03 85° ESE 05:38:12 10° SSW
CENTAUR R/B 3.9 05:31:36 17° NW 05:34:26 22° NNW 05:40:05 10° NNE
SMAP 4.1 05:31:19 10° NNE 05:35:50 49° E 05:40:20 10° S
Sich 1 4.3 05:31:58 10° SSE 05:36:01 43° E 05:40:04 10° NNE
ATLAS 5 CENTAUR R/B 1.2 05:35:57 10° SW 05:39:44 70° NW 05:44:01 10° NNE
CZ-4B R/B 2.5 05:37:20 10° NNE 05:40:55 83° W 05:44:31 10° SSW
H-2A R/B 4.1 05:36:59 10° NE 05:41:14 29° E 05:45:30 10° SSE
Cosmos 1805 Rocket 4.0 05:37:38 10° S 05:41:59 65° E 05:46:19 10° NNE
Meteor 1-27 Rocket 3.7 05:36:47 10° NNW 05:42:23 65° W 05:48:05 10° S
H-2A R/B 2.2 05:38:34 10° SSE 05:42:50 80° ENE 05:47:14 10° NNW
Meteor PRIRODA 3.5 05:42:11 10° N 05:45:45 62° WNW 05:49:20 10° SSW
Cosmos 1777 Rocket 4.0 05:40:57 10° SW 05:46:05 59° WNW 05:51:17 10° NNE
SL-8 R/B 4.4 05:45:02 16° W 05:48:26 40° SW 05:52:52 10° SSE
FAST Rocket 4.0 05:46:15 10° SSW 05:48:49 59° W 05:51:58 10° N
USA 32 4.0 05:44:28 10° N 05:49:45 87° W 05:54:59 10° S
Cosmos 773 Rocket 4.4 05:45:10 10° NNW 05:50:03 42° WSW 05:54:53 10° S
Lacrosse 4 Rocket 4.0 05:49:19 10° N 05:51:53 15° NE 05:54:26 10° ENE
Cosmos 1340 Rocket 2.9 05:50:29 10° SSW 05:54:20 50° WNW 05:58:15 10° N
Cosmos 1515 3.6 05:50:50 10° NNW 05:54:38 75° W 05:58:25 10° S
SL-27 R/B 3.5 05:54:53 13° NW 05:57:21 26° W 06:00:21 10° SSW
Cosmos 2026 Rocket 4.2 05:51:23 10° S 05:57:43 83° E 06:04:01 10° N
Okean O Rocket 4.4 05:55:37 10° NE 05:59:03 22° E 06:02:28 10° SE
Cosmos 2195 Rocket 4.4 05:55:38 10° S 06:01:45 79° W 06:07:53 10° N
DMSP B5D2-2 4.4 05:57:18 10° S 06:02:18 47° W 06:07:20 10° NNW
ATLAS 3B R/B 2.6 05:56:39 10° SW 06:03:09 73° NW 06:10:02 10° NE
Envisat 4.2 05:59:52 10° NNW 06:03:26 20° WNW 06:06:59 10° WSW
NOAA 6 4.1 05:59:29 10° NNE 06:04:39 84° ESE 06:09:45 10° SSW
Meteor 1-25 Rocket 4.2 06:03:39 10° SSW 06:09:15 71° WNW 06:14:50 10° N
Cosmos 158 Rocket 4.1 06:06:23 10° NNW 06:11:28 62° WSW 06:16:40 10° S
Cosmos 1809 Rocket 4.4 06:06:03 10° SSW 06:12:13 74° W 06:18:22 10° N
PSLV R/B 4.1 06:08:58 10° SSE 06:13:01 75° ENE 06:17:07 10° N
Cosmos 1666 3.7 06:09:21 10° S 06:13:01 51° E 06:16:42 10° NNE
Cosmos 1939 Rocket 3.0 06:10:55 10° N 06:14:42 47° WNW 06:18:25 10° SSW
Cosmos 2297 Rocket 2.8 06:10:07 10° NNW 06:15:44 59° ENE 06:21:19 10° SE
Cosmos 1174 4.3 06:14:21 10° WSW 06:16:49 23° NW 06:19:25 10° N
EO 1 Delta rocket 4.3 06:12:35 10° N 06:18:55 75° WNW 06:23:59 10° SSW
Cosmos 2369 Rocket 3.9 06:17:26 10° WNW 06:19:40 12° NW 06:21:55 10° NNW
